Regional Weather Roundup
Issued by NWS

Home | Current Version | Previous Version | Text Only | Print | Product List | Glossary Off
Versions: 1 2 3 4 5 6 7 8 9 10 11 12 13 14 15 16 17 18 19 20 21 22 23 24 25 26 27 28 29 30 31 32 33 34 35 36 37 38 39 40 41 42 43 44 45 46 47 48 49 50

000
ASUS45 KSLC 221310
RWRUT

UTAH REGIONAL WEATHER ROUNDUP
NATIONAL WEATHER SERVICE SALT LAKE CITY UT
700 AM MDT FRI JUL 22 2016

UTZ001>011-023>025-221400-

NORTHERN UTAH

CITY           SKY/WX    TMP DP  RH WIND       PRES   REMARKS
BRIGHAM CITY     N/A     74  47  37 N9        30.10S
HILL AFB       MOCLDY    78  46  31 SE10      30.15R
LOGAN          PTCLDY    67  50  54 N5        30.12R
OGDEN          PTCLDY    80  46  30 SE9       30.11S
PROVO AIRPORT  PTCLDY    73  48  40 CALM      30.17S
SALT LAKE CITY MOCLDY    82  52  35 SE18      30.10S
VERNAL         CLEAR     60  52  74 N7        30.29R
WENDOVER       CLEAR     75  45  33 CALM      30.10R
HEBER CITY     MOCLDY    63  54  72 CALM      30.27R
WEST JORDAN    CLEAR     77  52  41 S17       30.15S

$$

UTZ012>022-026-027-221400-

SOUTHERN/CENTRAL UTAH

CITY           SKY/WX    TMP DP  RH WIND       PRES   REMARKS
BLANDING       PTCLDY    64  53  68 NE3       30.41R
BRYCE CANYON   CLEAR     51  45  79 W7        30.46R
CEDAR CITY     CLEAR     64  44  48 NE6       30.26R
DELTA          PTCLDY    70  45  40 SE6       30.17S
MILFORD        CLEAR     65  46  50 S9        30.20R
MOAB/CYNLANDS  CLEAR     70  47  43 CALM      30.21R
PRICE          CLEAR     62  44  51 CALM      30.31R
ST GEORGE      PTSUNNY   81  43  26 E6        30.07R
KANAB          CLEAR     64  46  52 NE5       30.27

$$

REGIONAL REPORTS     COLORADO/ARIZONA

CITY           SKY/WX    TMP DP  RH WIND       PRES   REMARKS
CRAIG, CO      CLEAR     51  46  83 W3        30.37S
GRAND JUNCTION CLEAR     68  52  56 E9        30.26R
RIFLE          CLEAR     59  51  75 SE3       30.35R
MONTROSE       CLEAR     62  53  72 SE8       30.37R
CORTEZ         PTCLDY    61  54  77 CALM      30.36R
PAGE, AZ       CLEAR     79  52  38 S8        30.18R
GRAND CANYON   CLEAR     56  48  74 CALM      30.38R
KINGMAN        CLEAR     81  42  25 CALM      30.10R
FLAGSTAFF      PTCLDY    54  51  90 CALM      30.42R

$$

REGIONAL REPORTS    NEVADA/IDAHO/WYOMING

CITY           SKY/WX    TMP DP  RH WIND       PRES   REMARKS
LAS VEGAS, NV  PTCLDY    88  26  10 CALM      29.93R
ELY            CLEAR     54  31  41 SE9       30.30R
ELKO           CLEAR     60  26  27 E3        30.23R
POCATELLO, ID  PTCLDY    76  43  30 SW10      30.12R
BURLEY         CLEAR     67  36  31 SW13      30.11R
EVANSTON, WY   CLOUDY    67  42  40 SW7       30.35S
ROCK SPRINGS   CLEAR     61  44  53 S3        30.36R
KEMMERER         N/A     61  39  44 CALM      30.38S

$$



USA.gov is the U.S. government's official web portal to all federal, state and local government web resources and services.